| time (UTC) | temp C | wind direction | speed KPH | gust KPH | rain 1hr cm | rain 24hr cm | rain mn cm | humidity % | barometer mb |
| 20260507000106 | 19 | 252 | 0.0 | 4.8 | 0.00 | 0.28 | 0.28 | 82 | 999.9 |
| 20260506234517 | 20 | 282 | 0.0 | 4.8 | 0.00 | 0.28 | 0.28 | 81 | 1000.0 |
| 20260506233045 | 20 | 260 | 0.0 | 3.2 | 0.00 | 0.28 | 0.28 | 81 | 999.9 |
| 20260506231503 | 20 | 263 | 1.6 | 3.2 | 0.00 | 0.28 | 0.28 | 80 | 1000.0 |
| 20260506230030 | 20 | 270 | 1.6 | 8.0 | 0.00 | 0.28 | 0.28 | 78 | 999.8 |
| 20260506224540 | 20 | 262 | 3.2 | 11.3 | 0.00 | 0.28 | 0.28 | 79 | 999.8 |
| 20260506223002 | 20 | 292 | 1.6 | 6.4 | 0.00 | 0.28 | 0.28 | 78 | 999.6 |
| 20260506221533 | 20 | 276 | 1.6 | 12.9 | 0.00 | 0.28 | 0.28 | 80 | 999.8 |
| 20260506220051 | 20 | 306 | 4.8 | 19.3 | 0.00 | 0.28 | 0.28 | 80 | 999.6 |
| 20260506214516 | 20 | 258 | 3.2 | 27.4 | 0.00 | 0.28 | 0.28 | 81 | 999.6 |
| 20260506213035 | 19 | 271 | 3.2 | 16.1 | 0.00 | 0.28 | 0.28 | 81 | 999.5 |
| 20260506211504 | 19 | 261 | 3.2 | 9.7 | 0.00 | 0.28 | 0.28 | 81 | 999.4 |
| 20260506210024 | 19 | 273 | 4.8 | 25.7 | 0.00 | 0.28 | 0.28 | 81 | 999.4 |
| 20260506204549 | 19 | 286 | 4.8 | 24.1 | 0.00 | 0.28 | 0.28 | 82 | 999.3 |
| 20260506203011 | 18 | 260 | 4.8 | 20.9 | 0.00 | 0.28 | 0.28 | 83 | 999.2 |
| 20260506201600 | 18 | 294 | 4.8 | 12.9 | 0.00 | 0.28 | 0.28 | 84 | 999.4 |
| 20260506200011 | 18 | 280 | 1.6 | 14.5 | 0.00 | 0.28 | 0.28 | 85 | 999.4 |
| 20260506194536 | 18 | 306 | 1.6 | 14.5 | 0.00 | 0.28 | 0.28 | 86 | 999.5 |
| 20260506193035 | 17 | 275 | 3.2 | 11.3 | 0.00 | 0.28 | 0.28 | 86 | 999.8 |
| 20260506191505 | 17 | 276 | 4.8 | 22.5 | 0.00 | 0.28 | 0.28 | 87 | 1000.0 |
| 20260506190019 | 17 | 268 | 4.8 | 24.1 | 0.00 | 0.28 | 0.28 | 87 | 1000.0 |
| 20260506184544 | 17 | 292 | 4.8 | 12.9 | 0.00 | 0.28 | 0.28 | 87 | 1000.1 |
| 20260506183006 | 17 | 273 | 6.4 | 20.9 | 0.00 | 0.28 | 0.28 | 88 | 1000.2 |
| 20260506181553 | 17 | 237 | 4.8 | 17.7 | 0.00 | 0.28 | 0.28 | 86 | 1000.2 |
| 20260506180006 | 17 | 270 | 3.2 | 9.7 | 0.03 | 0.28 | 0.28 | 87 | 1000.2 |
| 20260506174519 | 17 | 263 | 1.6 | 8.0 | 0.03 | 0.28 | 0.28 | 88 | 1000.3 |
| 20260506173039 | 17 | 257 | 3.2 | 16.1 | 0.03 | 0.28 | 0.28 | 88 | 1000.4 |
| 20260506171603 | 17 | 256 | 4.8 | 12.9 | 0.05 | 0.28 | 0.28 | 89 | 1000.4 |
| 20260506170022 | 17 | 236 | 1.6 | 8.0 | 0.08 | 0.25 | 0.25 | 90 | 1000.3 |
| 20260506164546 | 17 | 260 | 0.0 | 4.8 | 0.13 | 0.25 | 0.25 | 91 | 1000.5 |
| 20260506163005 | 17 | 267 | 0.0 | 8.0 | 0.18 | 0.25 | 0.25 | 91 | 1000.6 |
| 20260506161524 | 16 | 272 | 0.0 | 4.8 | 0.20 | 0.23 | 0.23 | 90 | 1001.4 |
| 20260506154524 | 17 | 275 | 1.6 | 4.8 | 0.13 | 0.13 | 0.13 | 88 | 1001.9 |
| 20260506153048 | 17 | 263 | 0.0 | 4.8 | 0.08 | 0.08 | 0.08 | 86 | 1001.8 |
| 20260506151510 | 18 | 285 | 1.6 | 8.0 | 0.03 | 0.03 | 0.03 | 81 | 1001.9 |
| 20260506150021 | 18 | 277 | 1.6 | 6.4 | 0.00 | 0.00 | 0.00 | 77 | 1001.5 |
| 20260506143055 | 19 | 289 | 6.4 | 25.7 | 0.00 | 0.00 | 0.00 | 71 | 1001.8 |
| 20260506141558 | 20 | 277 | 3.2 | 9.7 | 0.00 | 0.00 | 0.00 | 70 | 1001.8 |
| 20260506140005 | 20 | 259 | 4.8 | 30.6 | 0.00 | 0.00 | 0.00 | 71 | 1001.6 |
| 20260506134535 | 19 | 252 | 3.2 | 14.5 | 0.00 | 0.00 | 0.00 | 72 | 1001.6 |
| 20260506133119 | 19 | 270 | 1.6 | 17.7 | 0.00 | 0.00 | 0.00 | 73 | 1001.7 |
| 20260506131601 | 19 | 272 | 4.8 | 16.1 | 0.00 | 0.00 | 0.00 | 73 | 1001.7 |
| 20260506130030 | 19 | 267 | 4.8 | 12.9 | 0.00 | 0.00 | 0.00 | 73 | 1002.1 |
| 20260506124558 | 19 | 246 | 3.2 | 8.0 | 0.00 | 0.00 | 0.00 | 75 | 1001.8 |
| 20260506123009 | 18 | 303 | 3.2 | 6.4 | 0.00 | 0.00 | 0.00 | 75 | 1001.8 |
| 20260506121551 | 18 | 273 | 1.6 | 6.4 | 0.00 | 0.00 | 0.00 | 77 | 1001.6 |
| 20260506120011 | 18 | 268 | 3.2 | 16.1 | 0.00 | 0.00 | 0.00 | 78 | 1001.9 |
| 20260506114527 | 18 | 278 | 3.2 | 11.3 | 0.00 | 0.00 | 0.00 | 78 | 1001.9 |
| 20260506113057 | 18 | 274 | 1.6 | 9.7 | 0.00 | 0.00 | 0.00 | 78 | 1001.8 |
| 20260506111518 | 18 | 277 | 0.0 | 9.7 | 0.00 | 0.00 | 0.00 | 79 | 1001.8 |
| 20260506110006 | 17 | 237 | 1.6 | 12.9 | 0.00 | 0.00 | 0.00 | 79 | 1001.7 |
| 20260506104522 | 17 | 296 | 3.2 | 8.0 | 0.00 | 0.00 | 0.00 | 80 | 1001.8 |
| 20260506103007 | 17 | 275 | 0.0 | 8.0 | 0.00 | 0.00 | 0.00 | 81 | 1001.7 |
| 20260506101536 | 17 | 253 | 1.6 | 9.7 | 0.00 | 0.00 | 0.00 | 81 | 1001.6 |
| 20260506100108 | 17 | 252 | 1.6 | 8.0 | 0.00 | 0.00 | 0.00 | 81 | 1001.7 |
| 20260506094505 | 17 | 292 | 1.6 | 8.0 | 0.00 | 0.00 | 0.00 | 81 | 1001.4 |
| 20260506093032 | 17 | 270 | 1.6 | 9.7 | 0.00 | 0.00 | 0.00 | 80 | 1001.4 |
| 20260506091556 | 18 | 233 | 1.6 | 12.9 | 0.00 | 0.00 | 0.00 | 80 | 1001.5 |
| 20260506090019 | 18 | 262 | 1.6 | 8.0 | 0.00 | 0.00 | 0.00 | 80 | 1001.6 |
| 20260506084553 | 17 | 266 | 1.6 | 8.0 | 0.00 | 0.00 | 0.00 | 80 | 1001.6 |
| 20260506083007 | 17 | 251 | 1.6 | 4.8 | 0.00 | 0.00 | 0.00 | 81 | 1001.7 |
| 20260506081533 | 18 | 266 | 0.0 | 6.4 | 0.00 | 0.00 | 0.00 | 80 | 1001.8 |
| 20260506073052 | 18 | 273 | 0.0 | 8.0 | 0.00 | 0.00 | 0.00 | 78 | 1001.9 |
| 20260506071508 | 18 | 253 | 0.0 | 4.8 | 0.00 | 0.00 | 0.00 | 78 | 1001.9 |
| 20260506061543 | 19 | 276 | 0.0 | 11.3 | 0.00 | 0.00 | 0.00 | 76 | 1002.2 |
| 20260506044509 | 19 | 251 | 3.2 | 9.7 | 0.00 | 0.00 | 0.00 | 71 | 1002.6 |
| 20260506043036 | 20 | 246 | 1.6 | 8.0 | 0.00 | 0.00 | 0.00 | 70 | 1002.6 |
| 20260506041603 | 20 | 267 | 0.0 | 6.4 | 0.00 | 0.00 | 0.00 | 68 | 1002.7 |
| 20260506040011 | 20 | 263 | 1.6 | 8.0 | 0.00 | 0.00 | 0.00 | 67 | 1002.7 |
| 20260506034609 | 20 | 242 | 1.6 | 11.3 | 0.00 | 0.00 | 0.00 | 66 | 1002.5 |
| 20260506033106 | 20 | 243 | 1.6 | 11.3 | 0.00 | 0.00 | 0.00 | 65 | 1002.4 |
| 20260506031538 | 20 | 256 | 1.6 | 9.7 | 0.00 | 0.00 | 0.00 | 64 | 1002.5 |
| 20260506030051 | 20 | 265 | 1.6 | 9.7 | 0.00 | 0.00 | 0.00 | 63 | 1002.6 |
| 20260506024526 | 20 | 244 | 1.6 | 8.0 | 0.00 | 0.00 | 0.00 | 63 | 1002.6 |
| 20260506023056 | 21 | 268 | 1.6 | 6.4 | 0.00 | 0.00 | 0.00 | 63 | 1002.7 |
| 20260506021516 | 21 | 243 | 0.0 | 4.8 | 0.00 | 0.00 | 0.00 | 62 | 1002.7 |
| 20260506020047 | 21 | 237 | 0.0 | 6.4 | 0.00 | 0.00 | 0.00 | 61 | 1002.6 |
| 20260506014557 | 21 | 238 | 1.6 | 8.0 | 0.00 | 0.00 | 0.00 | 59 | 1002.5 |
| 20260506013010 | 22 | 240 | 1.6 | 9.7 | 0.00 | 0.00 | 0.00 | 55 | 1002.3 |
| 20260506011524 | 22 | 249 | 0.0 | 8.0 | 0.00 | 0.00 | 0.00 | 52 | 1002.2 |
| 20260506010120 | 23 | 278 | 0.0 | 6.4 | 0.00 | 0.00 | 0.00 | 50 | 1002.1 |
| 20260506004526 | 23 | 247 | 1.6 | 9.7 | 0.00 | 0.00 | 0.00 | 47 | 1002.0 |
| 20260506003100 | 23 | 256 | 0.0 | 11.3 | 0.00 | 0.00 | 0.00 | 44 | 1001.8 |
| 20260506001513 | 24 | 263 | 1.6 | 6.4 | 0.00 | 0.00 | 0.00 | 44 | 1001.7 |